Tracking 35019 objects as of 13-Aug-2026
HD Live streaming from Space Station
objects crossing your sky now

BREEZE-KM R/B


BREEZE-KM R/B is no longer on orbit


NORAD ID: 27452
Int'l Code: 2002-031C
Launch date: June 20, 2002
Source: Commonwealth of Independent States (former USSR) (CIS)
Launch site: PLESETSK MISSILE AND SPACE COMPLEX (PKMTR)
Decay date: 2002-11-16

Note: This is a ROCKET BODY
Your satellite tracking list
Your tracking list is empty




NASA's NSSDC Master Catalog

Two Line Element Set (TLE):
1 27452U 02031C   02320.54235693 +.25703787 -17084-5 +12966-3 0  9992
2 27452 086.5245 014.2850 0020956 125.6793 234.8583 16.54943364023303
Source of the keplerian elements: AFSPC